Overview Statistics Trail Chart Weather Telemetry Raw packets
 

This is the latest recevied weather packets stored in our database for station/object SV9TNF-57. If no packets are shown the sender has not sent any weather packets the latest 10 day(s).

<< 78 79 80 81 82 83 84 >>
Time Temp. Humidity Pressure Rain* Wind** Luminosity Snow
1788096440 28.33° C 58% 996.1 hPa 0 mm 6.26 m/s, 222° - -
1788096140 28.33° C 58% 996 hPa 0 mm 9.83 m/s, 219° - -
1788095840 28.33° C 59% 996.2 hPa 0 mm 6.71 m/s, 238° - -
1788095540 28.33° C 58% 996.4 hPa 0 mm 4.92 m/s, 274° - -
1788095240 27.78° C 59% 996.5 hPa 0 mm 5.36 m/s, 224° - -
1788094939 28.33° C 59% 996.3 hPa 0 mm 13.41 m/s, 206° - -
1788094639 28.33° C 59% 996.4 hPa 0 mm 10.73 m/s, 185° - -
1788094339 28.33° C 57% 996.3 hPa 0 mm 13.41 m/s, 165° - -
1788094039 28.33° C 58% 996.3 hPa 0 mm 0.89 m/s, 253° - -
1788093739 28.89° C 56% 996.4 hPa 0 mm 9.83 m/s, 184° - -
1788093439 28.89° C 55% 996.4 hPa 0 mm 4.02 m/s, 213° - -
1788093139 28.89° C 54% 996.4 hPa 0 mm 6.71 m/s, 227° - -
1788092839 28.33° C 57% 996.3 hPa 0 mm 1.34 m/s, 219° - -
1788092539 28.33° C 58% 996.1 hPa 0 mm 2.24 m/s, 174° - -
1788092239 28.89° C 55% 996.1 hPa 0 mm 2.24 m/s, 275° - -
1788091938 29.44° C 55% 996.2 hPa 0 mm 4.02 m/s, 217° - -
1788091639 28.89° C 56% 996.2 hPa 0 mm 6.26 m/s, 271° - -
1788091338 28.89° C 55% 996.1 hPa 0 mm 5.36 m/s, 182° - -
1788091038 28.89° C 56% 996.2 hPa 0 mm 4.92 m/s, 199° - -
1788090738 28.33° C 56% 996.5 hPa 0 mm 3.58 m/s, 181° - -
1788090438 28.33° C 56% 996.3 hPa 0 mm 9.83 m/s, 144° - -
1788090138 28.33° C 58% 996.2 hPa 0 mm 4.02 m/s, 152° - -
1788089838 28.33° C 57% 996.1 hPa 0 mm 0.89 m/s, 155° - -
1788089538 28.89° C 58% 996.2 hPa 0 mm 0.89 m/s, 102° - -
1788089252 28.33° C 57% 996.4 hPa 0 mm 2.68 m/s, 136° - -

* Rain latest hour (hover to see other rain measurements)
** Current wind speed in m/s (hover to see current wind gust speed)